Voltar ao catálogo

STARLINK-3591

AtivoComunicaçõesVLEO
NORAD 51870·PAYLOAD·🇺🇸 United States

Lançado Mar 3, 2022 de Cape Canaveral Space Force Station

Loading…

Próximas Passagens (próximas 24 horas)

TLE

AtualizadoSource: CelesTrak SupGP

Época: Sep 15, 2026, 02:31 UTC

1 51870C 22022U   26258.10534722 -.00031585  00000+0 -90353-3 0  2580
2 51870  53.1580 228.6524 0001323  87.0158 300.4143 15.35419133    13

Acompanhe STARLINK-3591 em tempo real com AllMySat

Download on the App Store